NORTHEAST SUFFOLK  -  Special Weather Statement Special Weather Statement        NORTHERN NASSAU  -  Special Weather Statement Special Weather Statement        NORTHWEST SUFFOLK  -  Special Weather Statement Special Weather Statement        SOUTHEAST SUFFOLK  -  Special Weather Statement Special Weather Statement        SOUTHERN NASSAU  -  Special Weather Statement Special Weather Statement        SOUTHWEST SUFFOLK  -  Special Weather Statement Special Weather Statement      

Active alerts

Northern Nassau
  Details for Northern Nassau Special Weather Statement
Southern Nassau
  Details for Southern Nassau Special Weather Statement
Northwest Suffolk
  Details for Northwest Suffolk Special Weather Statement
Southwest Suffolk
  Details for Southwest Suffolk Special Weather Statement
Northeast Suffolk
  Details for Northeast Suffolk Special Weather Statement
Southeast Suffolk
  Details for Southeast Suffolk Special Weather Statement


WXM80 ListenWXM80 Stop

You find our weather info also at:

UK Metoffice

WeatherCloud

Weather Underground

Northeastern Weather Network

AWEKAS

Citizen Weather Observer Program (CWOP)

HAMweather, WeatherForYou, PWS Weather


Weather Underground History page Text

Daily Summary for December 07, 2017 Units:  Metric    English   Both
« Previous Day
Next Day »
Daily Weekly Monthly Yearly Custom
  High: Low: Average:
Temperature: 7.8 °C 3.2 °C 5 °C
Dew Point: -1.1 °C -5.4 °C -3.3 °C
Humidity: 68 % 40 % 56 %
Wind Speed: 19.8 km/h 0.3 km/h 6.8 km/h
Wind Gust: 32.2 km/h - -
Wind:- - WSW
Pressure: 1016.8 hPa 1009 hPa -
Precipitation: 0 mm    
Historical Graphs
 
 
Tabular Data for December 07, 2017
Time Temperature Dew Point Pressure Wind Wind Speed Wind Gust Humidity Rainfall Rate (Hourly)
00:03 4.1 °C -3.7 °C 1015.1 hPa WSW 3.7 km/h 11.1 km/h 57 % 0 mm
00:08 4.1 °C -3.7 °C 1015.5 hPa WSW 3.7 km/h 5.6 km/h 57 % 0 mm
00:13 4 °C -3.8 °C 1015.1 hPa SW 5.5 km/h 8 km/h 57 % 0 mm
00:18 4 °C -4 °C 1015.5 hPa SW 6.9 km/h 16.7 km/h 56 % 0 mm
00:23 4 °C -3.8 °C 1015.1 hPa SW 2.1 km/h 8 km/h 57 % 0 mm
00:28 4 °C -3.8 °C 1015.5 hPa SW 4.7 km/h 11.1 km/h 57 % 0 mm
00:33 4 °C -3.8 °C 1015.1 hPa SSW 1.6 km/h 7.4 km/h 57 % 0 mm
00:38 4 °C -3.8 °C 1015.5 hPa SW 5.6 km/h 7.4 km/h 57 % 0 mm
00:44 4 °C -3.6 °C 1015.5 hPa SW 7.7 km/h 11.1 km/h 58 % 0 mm
00:49 3.9 °C -3.6 °C 1015.5 hPa SSW 2.4 km/h 9.3 km/h 58 % 0 mm
00:54 3.9 °C -3.6 °C 1015.5 hPa South 6.1 km/h 18.5 km/h 58 % 0 mm
00:59 3.9 °C -3.6 °C 1015.1 hPa SW 4 km/h 8 km/h 58 % 0 mm
01:04 3.9 °C -3.6 °C 1015.1 hPa SSW 2.1 km/h 5.6 km/h 58 % 0 mm
01:09 3.9 °C -3.6 °C 1015.1 hPa South 4.3 km/h 8 km/h 58 % 0 mm
01:14 4 °C -3.6 °C 1015.1 hPa South 10.3 km/h 14.8 km/h 58 % 0 mm
01:19 4.1 °C -3.7 °C 1015.1 hPa SSW 8.4 km/h 13 km/h 57 % 0 mm
01:24 4.1 °C -3.7 °C 1015.1 hPa SSW 6.9 km/h 11.3 km/h 57 % 0 mm
01:29 4.1 °C -3.7 °C 1015.1 hPa SSW 3.4 km/h 11.1 km/h 57 % 0 mm
01:34 4.2 °C -3.4 °C 1015.1 hPa SW 2.1 km/h 5.6 km/h 58 % 0 mm
01:39 4.2 °C -3.4 °C 1015.1 hPa South 5.8 km/h 14.8 km/h 58 % 0 mm
01:44 4.2 °C -3.6 °C 1015.1 hPa SW 4 km/h 5.6 km/h 57 % 0 mm
01:49 4.2 °C -3.4 °C 1015.1 hPa SW 3.7 km/h 8 km/h 58 % 0 mm
01:54 4.2 °C -3.4 °C 1015.1 hPa SSW 5.6 km/h 9.7 km/h 58 % 0 mm
01:59 4.2 °C -3.4 °C 1015.1 hPa SW 6 km/h 9.3 km/h 58 % 0 mm
02:05 4.2 °C -3.4 °C 1015.1 hPa WSW 3.1 km/h 5.6 km/h 58 % 0 mm
02:10 4.2 °C -3.4 °C 1015.1 hPa SSW 2.9 km/h 5.6 km/h 58 % 0 mm
02:15 4.2 °C -3.4 °C 1015.1 hPa SW 1.3 km/h 5.6 km/h 58 % 0 mm
02:20 4.2 °C -3.4 °C 1015.1 hPa SW 5.6 km/h 9.3 km/h 58 % 0 mm
02:25 4.1 °C -3.4 °C 1015.1 hPa SW 3.2 km/h 11.1 km/h 58 % 0 mm
02:30 4.1 °C -3.2 °C 1015.1 hPa SW 4 km/h 11.3 km/h 59 % 0 mm
02:35 4.1 °C -3.4 °C 1015.1 hPa WSW 6.8 km/h 14.8 km/h 58 % 0 mm
02:40 4.1 °C -3.4 °C 1015.1 hPa SW 4 km/h 7.4 km/h 58 % 0 mm
02:45 4.2 °C -3.4 °C 1014.8 hPa SSW 4.5 km/h 7.4 km/h 58 % 0 mm
02:50 4.1 °C -3.2 °C 1014.8 hPa WSW 1.8 km/h 11.3 km/h 59 % 0 mm
02:55 4.1 °C -3.2 °C 1014.8 hPa WSW 6.6 km/h 9.3 km/h 59 % 0 mm
03:00 4.1 °C -3.2 °C 1014.8 hPa SW 2.3 km/h 11.1 km/h 59 % 0 mm
03:05 4.1 °C -3.2 °C 1015.1 hPa SSW 6.8 km/h 11.1 km/h 59 % 0 mm
03:10 4.1 °C -3.2 °C 1014.8 hPa SW 6.3 km/h 9.3 km/h 59 % 0 mm
03:15 4.2 °C -2.9 °C 1014.8 hPa SW 7.4 km/h 16.1 km/h 60 % 0 mm
03:20 4.2 °C -2.9 °C 1014.8 hPa SW 7.7 km/h 18.5 km/h 60 % 0 mm
03:26 4.2 °C -2.9 °C 1014.8 hPa SSW 5.3 km/h 14.5 km/h 60 % 0 mm
03:31 4.3 °C -2.8 °C 1014.8 hPa SW 3.1 km/h 9.3 km/h 60 % 0 mm
03:36 4.3 °C -2.8 °C 1014.8 hPa WSW 3.2 km/h 14.5 km/h 60 % 0 mm
03:38 4.3 °C -2.8 °C 1014.8 hPa WSW 5.3 km/h 14.8 km/h 60 % 0 mm
03:43 4.3 °C -2.8 °C 1014.8 hPa SW 6.6 km/h 14.8 km/h 60 % 0 mm
03:48 4.3 °C -2.8 °C 1014.8 hPa SW 0.6 km/h 5.6 km/h 60 % 0 mm
03:53 4.3 °C -2.8 °C 1014.8 hPa WSW 6.1 km/h 13 km/h 60 % 0 mm
03:58 4.3 °C -2.8 °C 1014.8 hPa WSW 10.5 km/h 16.7 km/h 60 % 0 mm
04:03 4.3 °C -2.8 °C 1014.8 hPa WSW 8 km/h 16.7 km/h 60 % 0 mm
04:08 4.3 °C -2.8 °C 1014.8 hPa SW 3.7 km/h 12.9 km/h 60 % 0 mm
04:13 4.3 °C -2.8 °C 1014.4 hPa West 9 km/h 11.1 km/h 60 % 0 mm
04:18 4.3 °C -2.8 °C 1014.4 hPa West 10.1 km/h 16.7 km/h 60 % 0 mm
04:23 4.3 °C -2.8 °C 1014.4 hPa South 4 km/h 9.3 km/h 60 % 0 mm
04:28 4.2 °C -2.7 °C 1014.4 hPa SSW 5 km/h 11.1 km/h 61 % 0 mm
04:33 4.2 °C -2.7 °C 1014.4 hPa WSW 4.3 km/h 7.4 km/h 61 % 0 mm
04:38 4.2 °C -2.7 °C 1014.4 hPa WSW 4.7 km/h 13 km/h 61 % 0 mm
04:39 4.2 °C -2.7 °C 1014.4 hPa WSW 2.9 km/h 5.6 km/h 61 % 0 mm
04:44 4.2 °C -2.5 °C 1014.4 hPa SW 7.2 km/h 13 km/h 62 % 0 mm
04:49 4.2 °C -2.5 °C 1014.4 hPa WSW 1.9 km/h 7.4 km/h 62 % 0 mm
04:54 4.1 °C -2.3 °C 1014.4 hPa WSW 5.1 km/h 11.1 km/h 63 % 0 mm
04:59 4.1 °C -2.3 °C 1014.4 hPa WSW 7.2 km/h 12.9 km/h 63 % 0 mm
05:04 4.1 °C -2.2 °C 1014.4 hPa WSW 7.7 km/h 13 km/h 64 % 0 mm
05:09 4.1 °C -2.2 °C 1014.8 hPa West 4.5 km/h 13 km/h 64 % 0 mm
05:14 4.1 °C -2.2 °C 1014.8 hPa WSW 6.8 km/h 11.3 km/h 64 % 0 mm
05:19 4.1 °C -2.2 °C 1014.8 hPa SW 6.3 km/h 14.8 km/h 64 % 0 mm
05:24 4.1 °C -2.2 °C 1014.8 hPa SW 7.7 km/h 18.5 km/h 64 % 0 mm
05:29 4.1 °C -2.2 °C 1014.8 hPa SSW 1.6 km/h 16.7 km/h 64 % 0 mm
05:34 4.1 °C -2.2 °C 1014.8 hPa SW 4.8 km/h 11.1 km/h 64 % 0 mm
05:39 4.1 °C -2.2 °C 1014.8 hPa SSW 5.6 km/h 11.1 km/h 64 % 0 mm
05:44 4 °C -2.4 °C 1014.8 hPa SSW 1.8 km/h 5.6 km/h 63 % 0 mm
05:50 4 °C -2.4 °C 1015.1 hPa SW 2.3 km/h 7.4 km/h 63 % 0 mm
05:55 3.9 °C -2.5 °C 1015.1 hPa SW 7.4 km/h 13 km/h 63 % 0 mm
06:00 3.9 °C -2.5 °C 1015.1 hPa SW 3.1 km/h 11.1 km/h 63 % 0 mm
06:05 3.8 °C -2.6 °C 1015.1 hPa SW 6.6 km/h 13 km/h 63 % 0 mm
06:10 3.8 °C -2.4 °C 1015.1 hPa SW 7.4 km/h 11.1 km/h 64 % 0 mm
06:15 3.7 °C -2.4 °C 1015.1 hPa SW 4.2 km/h 9.7 km/h 64 % 0 mm
06:20 3.7 °C -2.4 °C 1015.5 hPa West 5.6 km/h 9.3 km/h 64 % 0 mm
06:25 3.7 °C -2.5 °C 1015.5 hPa SSW 5.1 km/h 11.1 km/h 64 % 0 mm
06:30 3.7 °C -2.5 °C 1015.5 hPa WSW 5.3 km/h 11.1 km/h 64 % 0 mm
06:35 3.6 °C -2.4 °C 1015.5 hPa WSW 6.3 km/h 13 km/h 65 % 0 mm
06:40 3.6 °C -2.4 °C 1015.5 hPa SW 3.2 km/h 7.4 km/h 65 % 0 mm
06:45 3.6 °C -2.4 °C 1015.5 hPa SW 3.9 km/h 7.4 km/h 65 % 0 mm
06:50 3.5 °C -2.4 °C 1015.5 hPa SW 4 km/h 6.4 km/h 65 % 0 mm
06:55 3.4 °C -2.5 °C 1015.5 hPa WSW 4.2 km/h 7.4 km/h 65 % 0 mm
07:00 3.4 °C -2.3 °C 1015.8 hPa SW 7.1 km/h 13 km/h 66 % 0 mm
07:05 3.4 °C -2.4 °C 1015.8 hPa WSW 3.5 km/h 9.7 km/h 66 % 0 mm
07:10 3.3 °C -2.4 °C 1015.8 hPa WSW 3.5 km/h 3.5 km/h 66 % 0 mm
07:15 3.3 °C -2.2 °C 1015.8 hPa SW 6 km/h 9.7 km/h 67 % 0 mm
07:20 3.3 °C -2.3 °C 1015.8 hPa SW 2.7 km/h 5.6 km/h 67 % 0 mm
07:25 3.3 °C -2.3 °C 1015.8 hPa SW 6.6 km/h 9.7 km/h 67 % 0 mm
07:31 3.2 °C -2.3 °C 1015.8 hPa SW 3.2 km/h 11.3 km/h 67 % 0 mm
07:36 3.2 °C -2.3 °C 1015.8 hPa SW 4.8 km/h 12.9 km/h 67 % 0 mm
07:41 3.2 °C -2.1 °C 1016.1 hPa SW 4.8 km/h 12.9 km/h 68 % 0 mm
07:46 3.2 °C -2.1 °C 1016.1 hPa SW 1.6 km/h 6.4 km/h 68 % 0 mm
07:51 3.2 °C -2.1 °C 1016.1 hPa SW 8 km/h 11.3 km/h 68 % 0 mm
08:01 3.3 °C -2.1 °C 1016.1 hPa SSW 5.1 km/h 8 km/h 68 % 0 mm
08:06 3.3 °C -2 °C 1016.1 hPa WSW 3.2 km/h 14.5 km/h 68 % 0 mm
08:11 3.4 °C -1.9 °C 1016.1 hPa West 1.6 km/h 12.9 km/h 68 % 0 mm
08:26 3.8 °C -1.6 °C 1016.1 hPa WSW 4.8 km/h 11.3 km/h 68 % 0 mm
08:28 3.9 °C -1.5 °C 1016.1 hPa West 6.4 km/h 13 km/h 68 % 0 mm
08:33 4.1 °C -1.3 °C 1016.1 hPa WNW 3.1 km/h 7.4 km/h 68 % 0 mm
08:38 4.2 °C -1.4 °C 1016.1 hPa WSW 6.4 km/h 19.3 km/h 67 % 0 mm
08:43 4.4 °C -1.2 °C 1016.1 hPa WSW 5.3 km/h 13 km/h 67 % 0 mm
08:48 4.6 °C -1.4 °C 1016.5 hPa WSW 10.5 km/h 18.5 km/h 65 % 0 mm
08:53 4.7 °C -1.6 °C 1016.1 hPa WSW 9.3 km/h 18.5 km/h 64 % 0 mm
08:58 4.8 °C -1.7 °C 1016.1 hPa WSW 10.6 km/h 12.9 km/h 63 % 0 mm
09:03 4.9 °C -1.6 °C 1016.1 hPa WSW 13 km/h 20.9 km/h 63 % 0 mm
09:08 5 °C -1.9 °C 1016.1 hPa West 10.1 km/h 18.5 km/h 61 % 0 mm
09:13 5.1 °C -1.8 °C 1016.1 hPa West 11.6 km/h 14.5 km/h 61 % 0 mm
09:18 5.2 °C -1.7 °C 1016.1 hPa West 6.6 km/h 16.7 km/h 61 % 0 mm
09:23 5.3 °C -1.4 °C 1016.1 hPa WSW 12.1 km/h 18.5 km/h 62 % 0 mm
09:28 5.5 °C -1.7 °C 1016.1 hPa WSW 8.9 km/h 18.5 km/h 60 % 0 mm
09:33 5.6 °C -2 °C 1016.1 hPa West 10.5 km/h 16.7 km/h 58 % 0 mm
09:38 5.8 °C -2.1 °C 1016.1 hPa West 14.5 km/h 22.2 km/h 57 % 0 mm
09:44 5.9 °C -2.2 °C 1016.1 hPa SW 19.8 km/h 27.8 km/h 56 % 0 mm
09:49 6 °C -2.4 °C 1016.1 hPa WSW 11.1 km/h 18.5 km/h 55 % 0 mm
09:54 6.1 °C -2.3 °C 1016.1 hPa WSW 8.5 km/h 22.2 km/h 55 % 0 mm
09:59 6.2 °C -2.4 °C 1016.5 hPa WNW 15.1 km/h 20.4 km/h 54 % 0 mm
10:04 6.3 °C -2.3 °C 1016.5 hPa West 10.9 km/h 18.5 km/h 54 % 0 mm
10:14 6.4 °C -1.9 °C 1016.5 hPa West 6.6 km/h 13 km/h 55 % 0 mm
10:19 6.6 °C -2.1 °C 1016.5 hPa WSW 10.9 km/h 18.5 km/h 54 % 0 mm
10:24 6.6 °C -2.3 °C 1016.1 hPa WNW 10 km/h 22.2 km/h 53 % 0 mm
10:29 6.6 °C -2.6 °C 1016.1 hPa South 9.2 km/h 20.4 km/h 52 % 0 mm
10:34 6.6 °C -3.3 °C 1016.1 hPa WSW 7.7 km/h 14.8 km/h 49 % 0 mm
10:39 6.6 °C -3.1 °C 1016.1 hPa WSW 10.1 km/h 16.7 km/h 50 % 0 mm
10:44 6.6 °C -3.1 °C 1016.1 hPa West 14.3 km/h 24.1 km/h 50 % 0 mm
10:49 6.6 °C -3.1 °C 1016.1 hPa WSW 9 km/h 13 km/h 50 % 0 mm
10:54 6.6 °C -3.7 °C 1015.8 hPa West 12.7 km/h 25.9 km/h 48 % 0 mm
10:59 6.4 °C -3.5 °C 1015.8 hPa WSW 13.5 km/h 25.9 km/h 49 % 0 mm
11:04 6.4 °C -3.3 °C 1015.8 hPa WSW 11.6 km/h 22.5 km/h 50 % 0 mm
11:09 6.3 °C -3.3 °C 1015.8 hPa WSW 9.7 km/h 22.2 km/h 50 % 0 mm
11:19 6.3 °C -3.1 °C 1015.5 hPa West 15.1 km/h 20.4 km/h 51 % 0 mm
11:24 6.3 °C -3.1 °C 1015.5 hPa SW 9.3 km/h 14.8 km/h 51 % 0 mm
11:29 6.3 °C -3.1 °C 1015.5 hPa WSW 7.2 km/h 16.1 km/h 51 % 0 mm
11:34 6.3 °C -3.7 °C 1015.1 hPa WNW 7.4 km/h 11.1 km/h 49 % 0 mm
11:39 6.3 °C -3.7 °C 1015.1 hPa WNW 8.7 km/h 14.8 km/h 49 % 0 mm
11:44 6.3 °C -3.7 °C 1015.1 hPa WSW 4.7 km/h 13 km/h 49 % 0 mm
11:49 6.3 °C -3.7 °C 1015.1 hPa WNW 9.2 km/h 25.9 km/h 49 % 0 mm
11:54 6.3 °C -3.9 °C 1015.1 hPa NW 6 km/h 16.7 km/h 48 % 0 mm
11:59 6.4 °C -4.1 °C 1015.1 hPa SW 13.8 km/h 16.7 km/h 47 % 0 mm
12:04 6.4 °C -4.1 °C 1014.8 hPa SW 16.7 km/h 22.5 km/h 47 % 0 mm
12:10 6.6 °C -3.9 °C 1014.8 hPa WSW 12.2 km/h 27.8 km/h 47 % 0 mm
12:15 6.7 °C -3.8 °C 1014.8 hPa WSW 8.4 km/h 16.7 km/h 47 % 0 mm
12:20 6.9 °C -4.6 °C 1014.8 hPa West 9.7 km/h 20.4 km/h 44 % 0 mm
12:25 7.1 °C -4.4 °C 1014.4 hPa SW 7.7 km/h 20.4 km/h 44 % 0 mm
12:30 7.2 °C -4.9 °C 1014.4 hPa SW 9.2 km/h 18.5 km/h 42 % 0 mm
12:35 7.2 °C -4.6 °C 1014.4 hPa WSW 13.7 km/h 24.1 km/h 43 % 0 mm
12:40 7.3 °C -4.8 °C 1014.4 hPa WSW 11.3 km/h 18.5 km/h 42 % 0 mm
12:45 7.3 °C -5.4 °C 1014.4 hPa SW 15.4 km/h 27.8 km/h 40 % 0 mm
12:47 7.3 °C -5.4 °C 1014.1 hPa NW 13.8 km/h 27.8 km/h 40 % 0 mm
12:50 7.3 °C -5.1 °C 1014.1 hPa SW 16.3 km/h 20.9 km/h 41 % 0 mm
13:00 7.3 °C -4.5 °C 1014.1 hPa West 7.4 km/h 18.5 km/h 43 % 0 mm
13:05 7.3 °C -4.1 °C 1014.1 hPa WNW 5.6 km/h 9.3 km/h 44 % 0 mm
13:20 7.5 °C -4 °C 1014.1 hPa WSW 4.8 km/h 27.4 km/h 44 % 0 mm
13:26 7.6 °C -3.3 °C 1013.8 hPa West 12.9 km/h 27.4 km/h 46 % 0 mm
13:31 7.6 °C -3.6 °C 1013.8 hPa West 8 km/h 29 km/h 45 % 0 mm
13:45 7.8 °C -3.7 °C 1013.8 hPa WSW 12.2 km/h 24.1 km/h 44 % 0 mm
13:56 7.8 °C -3.4 °C 1013.8 hPa WSW 14.5 km/h 32.2 km/h 45 % 0 mm
14:06 7.7 °C -3.5 °C 1013.4 hPa West 13.5 km/h 20.9 km/h 45 % 0 mm
14:16 7.5 °C -4 °C 1013.4 hPa WSW 7.1 km/h 20.4 km/h 44 % 0 mm
14:21 7.4 °C -4.1 °C 1013.4 hPa WSW 7.4 km/h 16.1 km/h 44 % 0 mm
14:26 7.3 °C -3.6 °C 1013.4 hPa WSW 6.9 km/h 11.1 km/h 46 % 0 mm
14:31 7.2 °C -4.9 °C 1013.4 hPa WSW 10.3 km/h 18.5 km/h 42 % 0 mm
14:41 6.9 °C -4.8 °C 1013.4 hPa SSW 10.8 km/h 31.5 km/h 43 % 0 mm
14:46 6.9 °C -4.6 °C 1013.4 hPa SW 8 km/h 16.7 km/h 44 % 0 mm
14:51 6.8 °C -4.3 °C 1013.4 hPa WSW 14.2 km/h 27.8 km/h 45 % 0 mm
15:01 6.8 °C -4.7 °C 1013.8 hPa WSW 10.9 km/h 20.4 km/h 44 % 0 mm
15:06 6.7 °C -4.4 °C 1013.8 hPa SW 15 km/h 19.3 km/h 45 % 0 mm
15:11 6.7 °C -4.7 °C 1013.8 hPa WSW 12.9 km/h 18.5 km/h 44 % 0 mm
15:17 6.7 °C -4.4 °C 1014.1 hPa SSW 8.5 km/h 20.4 km/h 45 % 0 mm
15:22 6.6 °C -4.2 °C 1014.1 hPa WNW 13.4 km/h 31.5 km/h 46 % 0 mm
15:27 6.6 °C -4.8 °C 1014.1 hPa WNW 10.5 km/h 18.5 km/h 44 % 0 mm
15:32 6.5 °C -4.9 °C 1014.1 hPa WSW 7.2 km/h 16.7 km/h 44 % 0 mm
15:37 6.4 °C -4.3 °C 1014.1 hPa WNW 11.3 km/h 16.1 km/h 46 % 0 mm
15:42 6.4 °C -4.7 °C 1014.1 hPa WSW 5.8 km/h 11.3 km/h 45 % 0 mm
15:43 6.4 °C -4.7 °C 1014.1 hPa West 12.2 km/h 20.9 km/h 45 % 0 mm
15:48 6.3 °C -4.4 °C 1014.1 hPa West 15.9 km/h 24.1 km/h 46 % 0 mm
15:53 6.3 °C -4.8 °C 1014.1 hPa WSW 9 km/h 22.2 km/h 45 % 0 mm
15:58 6.3 °C -4.5 °C 1014.1 hPa West 6.6 km/h 11.1 km/h 46 % 0 mm
16:03 6.3 °C -4.2 °C 1014.1 hPa WSW 8 km/h 18.5 km/h 47 % 0 mm
16:08 6.2 °C -4.3 °C 1014.1 hPa WNW 6.9 km/h 18.5 km/h 47 % 0 mm
16:13 6.2 °C -4.3 °C 1014.1 hPa WNW 10.6 km/h 13 km/h 47 % 0 mm
16:18 6.2 °C -4.3 °C 1014.1 hPa SW 9.2 km/h 16.1 km/h 47 % 0 mm
16:24 6.1 °C -4.4 °C 1014.1 hPa WSW 6 km/h 16.7 km/h 47 % 0 mm
16:29 6.1 °C -4.2 °C 1014.1 hPa WSW 4.5 km/h 11.3 km/h 48 % 0 mm
16:34 6 °C -4.2 °C 1014.1 hPa WSW 2.9 km/h 9.3 km/h 48 % 0 mm
16:39 5.9 °C -4.2 °C 1014.4 hPa WSW 3.9 km/h 18.5 km/h 48 % 0 mm
16:44 5.9 °C -4.6 °C 1014.4 hPa West 4 km/h 14.8 km/h 47 % 0 mm
16:49 5.9 °C -4.3 °C 1014.4 hPa WNW 6.1 km/h 9.7 km/h 48 % 0 mm
16:54 5.9 °C -4.3 °C 1014.4 hPa SW 8.5 km/h 11.3 km/h 48 % 0 mm
16:59 5.9 °C -4.3 °C 1014.4 hPa SW 3.5 km/h 7.4 km/h 48 % 0 mm
17:04 5.8 °C -4.6 °C 1014.4 hPa SW 10.8 km/h 16.7 km/h 47 % 0 mm
17:09 5.8 °C -4.3 °C 1014.4 hPa West 8.7 km/h 13 km/h 48 % 0 mm
17:14 5.8 °C -4.3 °C 1014.4 hPa SW 9.8 km/h 18.5 km/h 48 % 0 mm
17:19 5.8 °C -4.4 °C 1014.4 hPa SW 4.5 km/h 9.3 km/h 48 % 0 mm
17:24 5.8 °C -4.7 °C 1014.4 hPa SSW 4.7 km/h 6.4 km/h 47 % 0 mm
17:29 5.7 °C -4.7 °C 1014.1 hPa SW 5.8 km/h 7.4 km/h 47 % 0 mm
17:34 5.7 °C -4.8 °C 1014.1 hPa SSW 4.2 km/h 6.4 km/h 47 % 0 mm
17:39 5.6 °C -4.9 °C 1014.4 hPa SSW 0.3 km/h 3.7 km/h 47 % 0 mm
17:44 5.5 °C -4.9 °C 1014.4 hPa WSW 4.7 km/h 7.4 km/h 47 % 0 mm
17:49 5.4 °C -5.1 °C 1014.4 hPa South 2.3 km/h 5.6 km/h 47 % 0 mm
17:54 5.2 °C -5.2 °C 1014.4 hPa SW 4 km/h 9.3 km/h 47 % 0 mm
17:59 5.1 °C -5 °C 1014.4 hPa SW 3.9 km/h 4.8 km/h 48 % 0 mm
18:04 5 °C -5.1 °C 1014.4 hPa South 6.1 km/h 7.4 km/h 48 % 0 mm
18:09 4.9 °C -5.2 °C 1014.4 hPa SSW 4.2 km/h 5.6 km/h 48 % 0 mm
18:15 4.8 °C -5 °C 1014.4 hPa SW 1.4 km/h 7.4 km/h 49 % 0 mm
18:20 4.7 °C -5.1 °C 1014.8 hPa SW 1.6 km/h 5.6 km/h 49 % 0 mm
18:25 4.6 °C -5.3 °C 1014.8 hPa SW 2.6 km/h 5.6 km/h 49 % 0 mm
18:30 4.5 °C -5.1 °C 1014.8 hPa WSW 3.2 km/h 7.4 km/h 50 % 0 mm
18:35 4.3 °C -4.9 °C 1014.8 hPa SW 4 km/h 6.4 km/h 51 % 0 mm
18:40 4.2 °C -5.1 °C 1015.1 hPa SSW 5.1 km/h 14.8 km/h 51 % 0 mm
18:50 4.1 °C -4.6 °C 1015.1 hPa WSW 6.8 km/h 9.3 km/h 53 % 0 mm
18:55 4.1 °C -4.6 °C 1015.1 hPa SSW 5.6 km/h 11.1 km/h 53 % 0 mm
19:00 4.1 °C -4.4 °C 1015.5 hPa SSW 3.5 km/h 7.4 km/h 54 % 0 mm
19:05 4.1 °C -4.4 °C 1015.5 hPa South 7.4 km/h 11.1 km/h 54 % 0 mm
19:10 4.1 °C -4.2 °C 1015.5 hPa SSW 6.4 km/h 9.7 km/h 55 % 0 mm
19:15 4.1 °C -4.2 °C 1015.5 hPa SSW 4.2 km/h 11.1 km/h 55 % 0 mm
19:20 4.1 °C -4.2 °C 1015.8 hPa SSW 4.2 km/h 9.3 km/h 55 % 0 mm
19:25 4.1 °C -4.2 °C 1015.8 hPa SW 3.2 km/h 12.9 km/h 55 % 0 mm
19:35 4.1 °C -4.2 °C 1015.5 hPa SW 6.3 km/h 7.4 km/h 55 % 0 mm
19:40 4.1 °C -4.2 °C 1015.5 hPa SW 2.6 km/h 5.6 km/h 55 % 0 mm
19:45 4.1 °C -4.2 °C 1015.5 hPa SW 1.1 km/h 5.6 km/h 55 % 0 mm
19:50 4 °C -4.2 °C 1015.8 hPa SW 2.6 km/h 9.3 km/h 55 % 0 mm
19:56 3.9 °C -4.1 °C 1015.8 hPa SSW 3.2 km/h 11.3 km/h 56 % 0 mm
20:06 3.9 °C -4.1 °C 1015.8 hPa South 4.3 km/h 9.3 km/h 56 % 0 mm
20:11 3.9 °C -4.1 °C 1015.8 hPa WSW 2.7 km/h 11.1 km/h 56 % 0 mm
20:16 3.9 °C -4.1 °C 1015.8 hPa South 4 km/h 5.6 km/h 56 % 0 mm
20:21 3.9 °C -4.1 °C 1015.8 hPa SSW 3.1 km/h 5.6 km/h 56 % 0 mm
20:26 3.9 °C -4.1 °C 1015.8 hPa SW 3.1 km/h 7.4 km/h 56 % 0 mm
20:31 3.9 °C -4.1 °C 1015.8 hPa SW 3.9 km/h 7.4 km/h 56 % 0 mm
20:36 3.9 °C -4.1 °C 1015.8 hPa SSW 5.5 km/h 14.8 km/h 56 % 0 mm
20:39 3.9 °C -4.1 °C 1015.8 hPa SW 5.6 km/h 11.1 km/h 56 % 0 mm
20:44 3.9 °C -4.1 °C 1015.8 hPa SW 3.5 km/h 5.6 km/h 56 % 0 mm
20:49 3.9 °C -3.9 °C 1016.1 hPa SSW 1.9 km/h 5.6 km/h 57 % 0 mm
20:54 3.9 °C -3.8 °C 1016.1 hPa SSW 6.4 km/h 11.1 km/h 57 % 0 mm
20:59 3.9 °C -3.8 °C 1015.8 hPa SW 2.9 km/h 9.3 km/h 57 % 0 mm
21:04 4.1 °C -3.7 °C 1015.8 hPa South 5.3 km/h 9.3 km/h 57 % 0 mm
21:09 4.2 °C -3.6 °C 1015.8 hPa South 3.2 km/h 7.4 km/h 57 % 0 mm
21:14 4.2 °C -3.8 °C 1015.8 hPa SSW 9 km/h 16.7 km/h 56 % 0 mm
21:19 4.3 °C -3.7 °C 1015.8 hPa SSW 7.6 km/h 11.3 km/h 56 % 0 mm
21:24 4.4 °C -3.6 °C 1015.8 hPa WSW 5.1 km/h 9.3 km/h 56 % 0 mm
21:29 4.5 °C -3.8 °C 1015.8 hPa SW 9.5 km/h 13 km/h 55 % 0 mm
21:34 4.6 °C -3.5 °C 1016.1 hPa South 6.4 km/h 9.7 km/h 56 % 0 mm
21:39 4.6 °C -3.5 °C 1016.1 hPa SSW 3.2 km/h 7.4 km/h 56 % 0 mm
21:44 4.6 °C -3.5 °C 1016.1 hPa SSW 4.8 km/h 9.3 km/h 56 % 0 mm
21:50 4.6 °C -3.4 °C 1016.1 hPa WSW 2.6 km/h 9.7 km/h 56 % 0 mm
21:55 4.6 °C -3.4 °C 1016.1 hPa SW 3.7 km/h 3.7 km/h 56 % 0 mm
22:00 4.7 °C -3.4 °C 1016.1 hPa SW 7.1 km/h 13 km/h 56 % 0 mm
22:05 4.7 °C -3.3 °C 1016.5 hPa SSW 3.5 km/h 7.4 km/h 56 % 0 mm
22:10 4.8 °C -3.1 °C 1016.5 hPa WSW 1.4 km/h 7.4 km/h 57 % 0 mm
22:15 4.8 °C -3 °C 1016.5 hPa WSW 6.6 km/h 11.1 km/h 57 % 0 mm
22:20 4.9 °C -2.7 °C 1016.1 hPa WNW 5.1 km/h 11.3 km/h 58 % 0 mm
22:23 4.9 °C -2.4 °C 1009 hPa SW 9.7 km/h 19.3 km/h 59 % 0 mm
22:24 5 °C -2.3 °C 1016.1 hPa West 12.7 km/h 18.5 km/h 59 % 0 mm
22:29 5.1 °C -2.3 °C 1016.1 hPa WNW 10.5 km/h 18.5 km/h 59 % 0 mm
22:34 5.2 °C -2.2 °C 1016.1 hPa West 13.5 km/h 16.7 km/h 59 % 0 mm
22:39 5.3 °C -2.1 °C 1016.1 hPa SW 3.5 km/h 11.1 km/h 59 % 0 mm
22:44 5.4 °C -1.8 °C 1016.1 hPa West 1.8 km/h 7.4 km/h 60 % 0 mm
22:49 5.4 °C -2 °C 1016.5 hPa WNW 10.5 km/h 22.2 km/h 59 % 0 mm
22:54 5.4 °C -1.8 °C 1016.5 hPa NW 8.9 km/h 18.5 km/h 60 % 0 mm
22:59 5.4 °C -1.7 °C 1016.5 hPa WNW 10 km/h 29.6 km/h 60 % 0 mm
23:04 5.4 °C -1.6 °C 1016.5 hPa West 14.5 km/h 22.2 km/h 61 % 0 mm
23:09 5.3 °C -1.6 °C 1016.5 hPa SW 4.7 km/h 9.7 km/h 61 % 0 mm
23:19 5.3 °C -1.2 °C 1016.8 hPa NW 8.4 km/h 16.7 km/h 63 % 0 mm
23:24 5.3 °C -1.2 °C 1016.8 hPa West 9.8 km/h 19.3 km/h 63 % 0 mm
23:29 5.2 °C -1.3 °C 1016.5 hPa WSW 7.2 km/h 9.7 km/h 63 % 0 mm
23:34 5.2 °C -1.1 °C 1016.5 hPa WSW 10.1 km/h 22.5 km/h 64 % 0 mm
23:39 5.2 °C -1.1 °C 1016.5 hPa West 5.1 km/h 13 km/h 64 % 0 mm
23:44 5.1 °C -1.2 °C 1016.5 hPa SSW 10.3 km/h 14.8 km/h 64 % 0 mm
23:49 5.1 °C -1.2 °C 1016.5 hPa WSW 4.7 km/h 17.7 km/h 64 % 0 mm
23:54 5 °C -1.3 °C 1016.5 hPa WSW 12.2 km/h 18.5 km/h 64 % 0 mm
23:59 4.9 °C -1.3 °C 1016.5 hPa West 7.1 km/h 11.1 km/h 64 % 0 mm
Crab Meadow Weather
Compliments of Weather Underground - 3 mb

Script developed by  Jim McMurry - jmcmurry@mwt.net Adapted for the template by  Wim van der Kuil - Leuven-Template.eu

Weather Terms: Ice Storm Warning - Accumulations of 1/4 inch or more of freezing rain.